EST,Max TemperatureF,Mean TemperatureF,Min TemperatureF,Max Dew PointF,MeanDew PointF,Min DewpointF,Max Humidity, Mean Humidity, Min Humidity, Max Sea Level PressureIn, Mean Sea Level PressureIn, Min Sea Level PressureIn, Max VisibilityMiles, Mean VisibilityMiles, Min VisibilityMiles, Max Wind SpeedMPH, Mean Wind SpeedMPH, Max Gust SpeedMPH,PrecipitationIn, CloudCover, Events, WindDirDegrees
2011-11-1,60,46,32,39,35,30,100,72,31,30.34,30.28,30.22,10,9,4,10,2,17,0.00,,,17
2011-11-2,64,47,30,43,35,30,100,69,28,30.44,30.38,30.32,10,8,0,5,0,,0.00,,,155
2011-11-3,66,49,32,41,35,30,100,71,26,30.30,30.18,29.97,10,8,0,12,2,18,0.00,,,200
2011-11-4,53,50,48,52,50,46,100,93,77,30.03,29.88,29.78,10,7,1,14,6,20,1.46,,,24
2011-11-5,53,45,37,30,27,25,65,48,35,30.40,30.30,30.16,10,10,7,16,9,23,0.00,,,33
2011-11-6,64,50,35,46,39,34,100,67,42,30.51,30.45,30.40,10,10,2,7,1,,0.00,,,51
2011-11-7,69,51,33,50,42,34,100,75,38,30.41,30.37,30.31,10,8,0,8,1,,0.00,,,257
2011-11-8,69,52,35,48,40,34,100,72,27,30.32,30.27,30.21,10,9,2,6,0,,0.00,,,63
2011-11-9,69,51,33,52,43,34,100,78,43,30.21,30.13,30.02,10,8,3,6,0,,0.00,,,148
2011-11-10,62,50,39,54,45,34,100,85,54,29.99,29.90,29.84,10,8,0,9,1,17,0.01,,,344
2011-11-11,53,43,33,32,21,10,93,44,19,30.15,30.05,29.93,10,10,10,13,4,21,0.00,,,293
2011-11-12,66,46,26,32,26,21,100,55,19,30.28,30.23,30.19,10,10,10,15,3,22,0.00,,,216
2011-11-13,64,52,41,41,27,16,57,37,15,30.25,30.20,30.12,10,10,10,20,8,26,0.00,,,214
2011-11-14,75,64,53,54,50,46,88,62,38,30.13,30.06,29.99,10,10,10,23,8,29,0.00,,,220
2011-11-15,78,71,64,57,54,50,68,59,36,30.00,29.97,29.92,10,10,7,18,9,24,0.00,,,217
2011-11-16,71,68,66,66,65,63,100,89,78,29.96,29.86,29.75,10,7,2,13,7,21,0.22,,,211
2011-11-17,57,49,41,55,44,25,100,84,49,30.23,29.98,29.86,10,8,2,14,7,23,0.20,,,6
2011-11-18,50,37,24,28,19,5,100,60,16,30.51,30.44,30.32,10,10,10,9,1,,0.00,,,12
2011-11-19,60,42,24,39,29,19,100,66,28,30.49,30.43,30.36,10,10,7,9,1,,0.00,,,197
2011-11-20,73,57,41,57,49,39,93,70,47,30.35,30.30,30.22,10,10,7,15,4,21,0.00,,,221
2011-11-21,77,67,57,61,57,54,100,74,47,30.26,30.21,30.17,10,9,1,9,4,,0.00,,,265
2011-11-22,75,68,60,64,60,57,100,83,57,30.22,30.14,30.01,10,6,0,13,2,20,0.00,,,176
2011-11-23,71,61,50,64,48,30,94,63,34,30.10,29.86,29.76,10,10,7,18,11,32,0.06,,,271
2011-11-24,64,50,35,34,28,19,87,48,18,30.36,30.29,30.15,10,10,10,8,2,,0.00,,,303
2011-11-25,71,50,30,36,25,7,100,55,8,30.35,30.31,30.25,10,10,10,10,2,17,0.00,,,233
2011-11-26,71,53,35,46,36,30,87,56,31,30.35,30.29,30.26,10,10,10,15,3,20,0.00,,,236
2011-11-27,73,60,46,50,48,45,93,63,38,30.24,30.18,30.11,10,10,10,20,5,30,0.00,,,199
2011-11-28,69,63,57,63,55,52,100,78,56,30.10,30.04,29.94,10,9,2,9,3,20,0.05,,,133
2011-11-29,66,55,44,61,44,32,94,75,44,29.86,29.81,29.74,10,9,2,22,11,39,0.73,,,215
2011-11-30,53,44,35,36,32,27,100,65,38,30.03,29.92,29.82,10,10,10,12,7,21,0.00,,,263